Nathan Johnson

Recruteur en chef - Middlesbrough
30 Sept 2027
Jeudi
Processus

Personnalité

Adaptabilité (13) Ambition (11) Controverse (15) Loyauté (9) Pression (2) Professionnalisme (13) Sportivité (5) Tempérament (3)

Profil

Style d'entraînement Démocratique
Diplôme Continental C
Détermination 6
Gestion des joueurs 8
Motivation 9
Discipline 5
Satisfaction professionnelle
100%
Fatigue
0%
Rôle Recruteur en chef
Salaire 95.0K p/s
Contrat 14.03.2029

Performance

Comportement Bon
Efficacité de l'entraînement
46%
Développement des joueurs
35%
Prévention des blessures
65%
Mise en place tactique
65%

Événements récents

A participé à une réunion de recrutement 7j
A participé à une réunion de recrutement 14j
A participé à une réunion de recrutement 21j
A participé à une réunion de recrutement 28j
A participé à une réunion de recrutement 35j
A participé à une réunion de recrutement 42j
A participé à une réunion de recrutement 49j
A participé à une réunion de recrutement 56j

Suivi en cours

170
Joueur Club Statut Capacité Confiance Observé Dernière observation Dernier vote
Ewan Henderson Wycombe Wanderers Rapport prêt 116 / 108 86% 1 16.08.2027 -
Eric Bocat Stoke City Perdu 114 / 111 86% 1 28.06.2027 -
Yehor Yarmoliuk Brentford Actif 148 / 153 40% 3 21.06.2027 -
Christos Mouzakitis Hull City Actif 131 / 153 40% 3 21.06.2027 -
Murillo Nottingham Forest Actif 154 / 144 40% 3 21.06.2027 -
Harry Pickering Blackburn Rovers Perdu 120 / 112 86% 1 21.06.2027 -
Keagan Tau Ajax Cape Town Actif 93 / 106 40% 2 01.06.2027 -
Matías Gómez Granada Actif 115 / 127 40% 1 01.06.2027 -
Leandro Martins Benfica Actif 96 / 105 40% 1 01.06.2027 -
Tom Fellows Southampton Actif 130 / 140 40% 3 30.05.2027 -
Williams Manyama SuperSport United Actif 118 / 101 40% 2 30.05.2027 -
Mohamed Belloumi Hull City Actif 134 / 137 40% 1 30.05.2027 -
Juan Mosquera Sheffield Wednesday Actif 127 / 117 40% 4 27.05.2027 -
Amadou Onana Aston Villa Actif 155 / 151 40% 3 27.05.2027 -
Guille Rosas Gijón Actif 136 / 137 40% 1 27.05.2027 -
Richard Koné Queens Park Rangers Actif 124 / 120 40% 1 27.05.2027 -
Scott Twine Bristol City Actif 124 / 130 40% 1 27.05.2027 -
Jack Diamond Stockport County Actif 117 / 106 40% 1 27.05.2027 -
Hlompho Lorch Ajax Cape Town Actif 96 / 104 40% 2 26.05.2027 -
Daniel Kelly Oxford United Actif 110 / 112 40% 1 26.05.2027 -
Jan Bürger Gillingham Actif 115 / 124 40% 1 26.05.2027 -
Dango Ouattara Brentford Actif 152 / 136 40% 6 25.05.2027 -
Adrien Truffert Bournemouth Actif 147 / 137 40% 7 25.05.2027 -
Assane Diao Lazio Actif 147 / 145 40% 2 25.05.2027 -
Florentino Luís Ipswich Town Actif 141 / 140 40% 9 25.05.2027 -
Giorgi Chakvetadze Watford Actif 130 / 121 40% 2 25.05.2027 -
Jack Hinshelwood Brighton Actif 144 / 155 40% 1 25.05.2027 -
Nathan Collins Brentford Actif 151 / 158 40% 8 22.05.2027 -
Toby Collyer West Bromwich Albion Actif 136 / 127 40% 4 22.05.2027 -
Mats Wieffer Brighton Actif 151 / 157 40% 5 21.05.2027 -
Ousmane Diomande Nottingham Forest Actif 155 / 156 40% 4 21.05.2027 -
Tariq Lamptey Queens Park Rangers Actif 136 / 136 40% 6 21.05.2027 -
Milan van Ewijk Mansfield Town Actif 129 / 126 40% 5 20.05.2027 -
Luke McNally Bristol City Actif 129 / 136 40% 2 20.05.2027 -
Adam Wharton Crystal Palace Actif 153 / 163 40% 11 19.05.2027 -
Jake O'Brien Everton Actif 151 / 133 40% 7 19.05.2027 -
Oliver Skipp Leicester City Actif 135 / 126 40% 4 18.05.2027 -
Ryan Sessegnon Fulham Actif 150 / 157 40% 7 17.05.2027 -
Pelle Mattsson Norwich City Actif 122 / 113 40% 5 17.05.2027 -
Kevin Fulham Actif 152 / 155 40% 4 17.05.2027 -
Cian Ashford Cardiff City Actif 117 / 118 40% 1 17.05.2027 -
Edoardo Bove Watford Actif 131 / 132 40% 1 17.05.2027 -
Ethan Galbraith Swansea City Actif 136 / 125 40% 8 16.05.2027 -
Max Bird Birmingham Actif 128 / 142 40% 6 16.05.2027 -
Harry Clarke Preston Actif 128 / 129 40% 4 14.05.2027 -
Shea Charles Southampton Actif 140 / 140 40% 4 12.05.2027 -
Tshepang Moremi Orlando Pirates Actif 111 / 98 40% 3 12.05.2027 -
Nuno Tavares Lazio Actif 152 / 153 40% 3 12.05.2027 -
Habib Diarra Sunderland Actif 137 / 142 40% 3 12.05.2027 -
Welington Southampton Actif 130 / 124 40% 9 11.05.2027 -
Giacomo Raspadori Atalanta Actif 149 / 150 40% 5 10.05.2027 -
Isaiah Jones Luton Town Actif 123 / 118 40% 1 10.05.2027 -
Stanley Mills Oxford United Actif 127 / 136 40% 3 09.05.2027 -
Bosun Lawal Stoke City Actif 125 / 141 40% 3 08.05.2027 -
Yussif Saidu Zaragoza Actif 124 / 133 40% 1 07.05.2027 -
Finley McAllister Grimsby Town Actif 89 / 97 40% 1 07.05.2027 -
Adam Bakoune Ospitaletto Actif 95 / 113 40% 1 07.05.2027 -
Michael Kayode Brentford Actif 146 / 142 40% 6 06.05.2027 -
Othmane Maamma Watford Actif 128 / 120 40% 3 06.05.2027 -
Eduardo Felicíssimo Sporting CP Actif 106 / 126 40% 1 05.05.2027 -
Joel McGregor Swindon Town Actif 91 / 105 40% 1 05.05.2027 -
James Garner Everton Actif 151 / 157 40% 6 03.05.2027 -
Derry Murkin Derby County Actif 130 / 129 40% 3 30.04.2027 -
Quinten Timber Crystal Palace Actif 147 / 153 40% 5 30.04.2027 -
Jacques Ekomié Wrexham Actif 132 / 130 40% 5 28.04.2027 -
Jason Knight Bristol City Actif 133 / 125 40% 1 23.04.2027 -
Enzo Le Fée Sunderland Actif 141 / 148 40% 1 23.04.2027 -
Bobby Thomas Coventry City Actif 131 / 136 40% 2 21.04.2027 -
Nicolò Rovella Lazio Actif 152 / 163 40% 1 21.04.2027 -
Jarrad Branthwaite Everton Actif 155 / 164 40% 7 20.04.2027 -
Boubacar Kamara Aston Villa Actif 166 / 170 40% 2 20.04.2027 -
Teden Mengi Luton Town Actif 128 / 133 40% 3 19.04.2027 -
Nadir Zortea Bologna Actif 141 / 138 40% 1 19.04.2027 -
Óscar Mingueza Crystal Palace Actif 154 / 160 40% 6 18.04.2027 -
Aaron Hickey Brentford Actif 149 / 154 40% 5 18.04.2027 -
Imrân Louza Watford Actif 130 / 142 40% 5 17.04.2027 -
Brian De Keersmaecker Oxford United Actif 124 / 116 40% 1 17.04.2027 -
Matt O'Riley Brighton Actif 151 / 153 40% 1 17.04.2027 -
Carlos Vicente Birmingham Perdu 148 / 135 40% 3 15.04.2027 -
Yankuba Minteh Brighton Actif 148 / 155 40% 1 15.04.2027 -
Derensili Sanches Fernandes Huddersfield Town Actif 121 / 137 40% 1 15.04.2027 -
Josh Tymon Swansea City Actif 126 / 133 40% 5 12.04.2027 -
Noah Sadiki Sunderland Actif 143 / 150 40% 3 08.04.2027 -
Mandla Erasmus SuperSport United Actif 115 / 120 40% 1 08.04.2027 -
Ibrahim Maza Bayer Leverkusen Actif 143 / 157 40% 1 08.04.2027 -
Christian Krasnodar Actif 135 / 125 40% 5 04.04.2027 -
Juanlu Bournemouth Actif 147 / 144 40% 5 03.04.2027 -
Bradley Tau SuperSport United Actif 128 / 122 40% 5 01.04.2027 -
Derrick Fordjour Medeama Actif 97 / 98 40% 1 01.04.2027 -
Mohamed-Ali Cho Hull City Actif 136 / 140 40% 2 29.03.2027 -
Borja Sainz Fiorentina Actif 147 / 149 40% 1 25.03.2027 -
Siyanda Ndlovu Bloemfontein Celtic Actif 125 / 106 40% 1 25.03.2027 -
Mduduzi Shabalala Kaizer Chiefs Actif 109 / 120 40% 1 23.03.2027 -
Femi Seriki Sheffield United Actif 124 / 126 40% 1 19.03.2027 -
Georginio Rutter Brighton Actif 145 / 140 40% 7 17.03.2027 -
Mikkel Damsgaard Brentford Actif 152 / 148 40% 1 17.03.2027 -
Marcelo Allende Mamelodi Sundowns Actif 139 / 110 40% 1 14.03.2027 -
Alessandro Buongiorno Sassuolo Actif 158 / 160 40% 1 10.03.2027 -
Anel Ahmedhodžić Burnley Actif 132 / 146 40% 3 09.03.2027 -
Finn Azaz Southampton Actif 128 / 124 40% 1 07.03.2027 -
Ismail Al Suwaidi Al Fujairah Actif 121 / 111 40% 1 07.03.2027 -
Surprise Manthosi Polokwane City Actif 90 / 88 40% 1 07.03.2027 -
Calvin Bassey Fulham Actif 154 / 151 40% 2 04.03.2027 -
Siyanda Msani University of Pretoria Actif 103 / 101 40% 1 03.03.2027 -
Ian Maatsen Aston Villa Actif 153 / 153 40% 1 01.03.2027 -
Marlon Gomes Shakhtar Actif 133 / 138 40% 1 17.02.2027 -
Kristoffer Lund Birmingham Actif 127 / 137 40% 1 14.02.2027 -
Darlin Yongwa Norwich City Actif 120 / 111 40% 1 09.02.2027 -
Gustavo Mantuan Zenit Actif 134 / 130 40% 1 06.02.2027 -
Dara O'Shea Ipswich Town Actif 136 / 126 40% 1 03.02.2027 -
Adam Randell Bristol City Actif 130 / 139 40% 1 03.02.2027 -
Ricardo Pepi Chelsea Actif 142 / 145 69% 1 25.01.2027 -
Stanislav Agkatsev Sunderland Négociation 132 / 133 66% 1 01.01.2027 -
Dmytro Riznyk Cruz Azul Négociation 137 / 137 66% 1 01.01.2027 -
Armando Broja Burnley Actif 134 / 125 40% 5 29.12.2026 -
Ruben van Bommel Ferencvaros Actif 132 / 128 40% 2 29.12.2026 -
Lorenzo Colombo Genoa Actif 136 / 140 40% 2 29.12.2026 -
Iliman N'Diaye Everton Actif 161 / 160 40% 9 27.12.2026 -
Dwight McNeil Crystal Palace Actif 138 / 151 40% 1 25.12.2026 -
Ismaïla Sarr Crystal Palace Actif 145 / 161 40% 2 24.12.2026 -
Jean-Philippe Mateta Crystal Palace Actif 151 / 153 40% 6 22.12.2026 -
Youssef En-Nesyri Al-Ittihad Actif 144 / 134 40% 5 22.12.2026 -
Nicolas Madsen Queens Park Rangers Actif 125 / 116 40% 2 22.12.2026 -
Rico Lewis Manchester City Actif 149 / 166 40% 3 20.12.2026 -
Lukáš Červ Viktoria Plzen Actif 128 / 135 40% 2 20.12.2026 -
Elliot Anderson Manchester City Actif 158 / 139 40% 2 19.12.2026 -
Nicolás Fernández Mercau Shakhtar Actif 137 / 145 40% 3 17.12.2026 -
Gabriel Martinelli Brighton Actif 165 / 160 40% 5 16.12.2026 -
Gonzalo Fulham Actif 147 / 157 40% 5 16.12.2026 -
Zeki Amdouni Burnley Actif 128 / 139 40% 2 16.12.2026 -
Jørgen Strand Larsen Crystal Palace Actif 142 / 155 40% 5 12.12.2026 -
Eddie Nketiah Crystal Palace Actif 144 / 137 40% 3 11.12.2026 -
Steven Bergwijn Al-Ittihad Actif 145 / 151 40% 2 11.12.2026 -
Tyler Adams Bournemouth Actif 154 / 164 40% 2 11.12.2026 -
Dominic Calvert-Lewin Leeds United Actif 139 / 150 40% 4 08.12.2026 -
Thiago Brentford Actif 142 / 159 40% 2 07.12.2026 -
Jarrod Bowen West Ham United Actif 159 / 141 40% 4 04.12.2026 -
Sam Surridge Nashville SC Actif 140 / 145 40% 1 04.12.2026 -
Manfred Ugalde Spartak Moscow Actif 130 / 122 40% 1 02.12.2026 -
Taty Castellanos West Ham United Actif 151 / 156 40% 7 01.12.2026 -
Andrea Pinamonti Lazio Actif 139 / 125 40% 1 29.11.2026 -
Wilson Isidor Sunderland Actif 137 / 121 40% 2 28.11.2026 -
Nicolò Zaniolo Udinese Actif 137 / 137 40% 2 27.11.2026 -
Joshua Zirkzee Manchester United Actif 138 / 151 40% 2 26.11.2026 -
Noah Okafor Leeds United Actif 146 / 149 40% 3 26.11.2026 -
Pablo Felipe West Ham United Actif 131 / 134 40% 3 25.11.2026 -
Breel Embolo Atlanta United FC Actif 131 / 147 40% 5 24.11.2026 -
Mattia Felici Cagliari Actif 131 / 139 40% 1 22.11.2026 -
Brian Brobbey Sunderland Actif 139 / 136 40% 1 21.11.2026 -
Álvaro Rodríguez Bournemouth Actif 137 / 125 40% 2 14.11.2026 -
Bryan Ramírez FC Cincinnati Actif 123 / 114 40% 1 11.11.2026 -
Conrad Wallem Austria Wien Actif 127 / 115 40% 1 11.11.2026 -
Gabriel Jesus Barcelona Actif 151 / 145 40% 5 08.11.2026 -
Kerem Aktürkoğlu Fenerbahce Actif 143 / 140 40% 3 05.11.2026 -
Barış Alper Yılmaz Galatasaray Actif 147 / 165 40% 3 05.11.2026 -
Mateo Pellegrino Fiorentina Actif 134 / 142 40% 1 05.11.2026 -
Razvan Balasa Crvena Zvezda Actif 149 / 151 40% 2 28.10.2026 -
Adnan Courtois KV Oostende Actif 132 / 124 40% 4 23.10.2026 -
Japhet Sery Larsen Philadelphia Union Actif 116 / 112 40% 1 21.10.2026 -
Romelu Castagne KV Oostende Actif 132 / 147 40% 2 13.10.2026 -
Nicolò Tresoldi Club Brugge Actif 127 / 138 40% 1 11.10.2026 -
Kimito Nono Sanfrecce Hiroshima Actif 118 / 115 40% 1 09.10.2026 -
Lukas Engel Real Salt Lake Actif 125 / 115 40% 1 09.10.2026 -
Cody Gakpo Liverpool Actif 161 / 155 40% 4 06.10.2026 -
Federico Chiesa Liverpool Actif 152 / 161 40% 2 05.10.2026 -
Lucas Halter Houston Dynamo Actif 123 / 104 40% 1 05.10.2026 -
Petar Musa Adana Demirspor Actif 127 / 117 40% 2 02.10.2026 -
Diego Rossi Monterrey Actif 138 / 124 40% 1 27.09.2026 -
Martín Ojeda Orlando City Actif 126 / 153 40% 1 22.09.2026 -
Erick Sánchez OGC Nice Négociation 139 / 139 66% 1 24.08.2026 -